Location: Solon
(41.3849°N, 81.4081°W)
Time: 17:07:22
(UTC-05:00)

Daily predictions for brighter satellites

Satellite Brightness Start Highest point End
(mag) Time Altitude Azimuth Time Altitude Azimuth Time Altitude Azimuth
BREEZE-M DEB (TANK) 3.7 17:50:37 10° WNW 17:53:14 51° SSW 17:59:39 10° SE
Tsikada Rocket 4.1 17:46:56 10° S 17:53:16 78° E 17:59:42 10° N
Cosmos 2219 Rocket 2.6 17:51:34 10° S 17:56:52 44° ESE 18:02:12 10° NE
Cosmos 2322 Rocket 4.4 17:53:40 10° W 17:57:51 21° NW 18:02:03 10° N
Cosmos 1743 Rocket 3.8 17:53:39 10° SSE 17:57:58 51° E 18:02:19 10° NNE
Cosmos 2278 Rocket 2.9 17:56:54 10° N 18:01:57 32° ENE 18:06:58 10° ESE
Cosmos 1328 Rocket 3.6 17:58:59 10° N 18:03:23 62° E 18:07:47 10° SSE
Cosmos 540 Rocket 4.3 18:02:46 10° SSE 18:07:13 30° E 18:11:40 10° NE
Cosmos 1340 Rocket 4.5 18:05:27 10° ESE 18:07:37 14° E 18:09:40 10° NE
USA 215 3.5 18:02:22 10° ESE 18:08:41 52° NNE 18:15:00 10° NW
Cosmos 2151 3.8 18:06:08 10° SSE 18:09:45 29° E 18:13:24 10° NNE
Cosmos 1908 3.4 18:05:53 10° N 18:09:46 77° W 18:13:39 10° S
Cosmos 1515 Rocket 3.7 18:05:53 10° N 18:10:17 54° E 18:14:38 10° SSE
Cosmos 332 Rocket 3.8 18:05:48 10° S 18:10:33 66° ESE 18:15:23 10° NNE
MONITOR-E 4.2 18:08:46 10° SSE 18:11:53 58° ENE 18:15:01 10° N
Cosmos 1844 3.7 18:07:28 10° NNW 18:13:13 64° ENE 18:18:57 10° SE
SKYMED 2 3.9 18:09:35 10° NNE 18:13:47 46° E 18:17:58 10° S
SL-14 R/B 4.0 18:12:54 10° SSE 18:16:23 32° E 18:19:56 10° NNE
Cosmos 1674 3.2 18:14:24 10° SSW 18:18:10 62° W 18:22:00 10° N
SPOT 3 Rocket 4.0 18:13:23 10° S 18:18:28 66° WSW 18:23:37 10° NNW
MSX 4.0 18:13:03 10° S 18:18:46 80° WSW 18:24:31 10° NNW
Thor Agena Rocket 3.8 18:13:32 10° N 18:18:48 77° WNW 18:23:58 10° SSW
Cosmos 1151 Rocket 3.2 18:15:49 10° N 18:19:56 45° ENE 18:24:03 10° SSE
Cosmos 1634 Rocket 3.9 18:14:03 10° N 18:20:13 66° E 18:26:20 10° SSE
Cosmos 1484 Rocket 2.7 18:17:59 10° SSE 18:21:53 76° ENE 18:25:52 10° N
COSMOS 2428 3.2 18:18:16 10° SW 18:23:55 63° WNW 18:29:37 10° NNE
Cosmos 1125 Rocket 3.6 18:18:55 10° N 18:24:00 51° ENE 18:29:03 10° SE
Cosmos 1500 Rocket 3.4 18:20:39 10° S 18:24:56 72° E 18:29:17 10° NNE
Molniya-1 4.4 18:22:34 10° SW 18:25:15 60° NW 18:29:59 10° NNE
Cosmos 2237 Rocket 2.5 18:22:07 10° S 18:27:28 47° ESE 18:32:51 10° NE
BREEZE-M DEB (TANK) 3.6 18:22:04 10° NW 18:30:00 56° SW 18:33:06 10° SSE
ALOS 3.5 18:28:21 10° ESE 18:31:42 20° ENE 18:35:05 10° NNE
SL-16 R/B 3.4 18:28:09 10° SSE 18:32:20 22° E 18:34:21 18° ENE
Cosmos 44 3.7 18:27:43 10° S 18:32:48 49° ESE 18:36:41 16° NE
Cosmos 1300 2.7 18:30:39 10° N 18:34:28 60° E 18:38:14 10° SSE
IDEFIX/ARIANE 42P 4.3 18:29:56 10° SSW 18:34:42 37° W 18:39:32 10° NNW
Cosmos 1726 2.0 18:32:48 10° N 18:36:34 66° E 18:40:18 10° SSE
Cosmos 841 Rocket 4.1 18:34:58 10° SSW 18:40:10 58° WNW 18:45:23 10° NNE
Cosmos 2297 4.4 18:35:53 10° N 18:40:56 31° ENE 18:44:54 15° ESE
Cosmos 371 Rocket 3.3 18:36:09 10° SSW 18:40:57 86° WNW 18:45:47 10° NNE
Sich 1 4.5 18:38:26 10° SE 18:40:52 19° ESE 18:40:52 19° ESE
NOSS 0 Rocket 3.9 18:36:04 10° SSW 18:42:17 75° ESE 18:48:30 10° NNE
BREEZE-M DEB (TANK) 2.4 18:40:07 10° SW 18:42:29 42° SE 18:43:03 34° ESE
Lacrosse 5 rocket 2.0 18:39:08 10° NNW 18:42:33 31° NE 18:43:38 27° ENE
CZ-4 R/B 4.2 18:40:19 10° SW 18:43:13 20° W 18:46:07 10° NW
OTV 4 1.8 18:45:20 10° WSW 18:48:03 33° S 18:49:25 21° SE
CENTAUR R/B 3.5 18:45:33 10° WSW 18:51:24 44° NW 18:58:04 10° NNE
Meteor 1-11 4.2 18:48:23 10° S 18:54:00 72° E 18:59:44 10° NNE
Resurs 01 Rocket 2.4 18:54:23 29° ENE 18:54:23 29° ENE 18:57:56 10° N
Cosmos 2084 3.4 18:52:07 10° SW 18:55:58 65° NW 18:58:07 24° NNE
Meteor 1-28 Rocket 3.3 18:55:34 10° N 18:59:16 72° WNW 19:02:58 10° SSW
Cosmos 1844 Rocket 4.1 18:54:18 10° NW 18:59:35 41° WSW 19:04:48 10° S
Cosmos 44 Rocket 3.8 18:55:26 10° SW 19:00:31 62° NW 19:04:26 17° NNE
COSMO-SKYMED 1 3.4 18:57:35 10° N 19:01:48 50° WNW 19:05:59 10° SSW
Lacrosse 5 4.0 18:59:14 10° NW 19:02:17 16° NNW 19:04:47 12° NNE
CZ-3A R/B 2.9 18:57:37 10° NW 19:02:25 52° NE 19:04:51 28° E
Aureole 2 Rocket 2.5 19:00:05 10° S 19:03:38 63° ESE 19:04:38 44° NE
Cosmos 1707 Rocket 3.7 19:01:24 10° N 19:05:34 44° ENE 19:09:43 10° SSE
FengYun 1-2 T 4.3 19:04:51 10° SE 19:10:14 52° ENE 19:15:35 10° N
Cosmos 1461 3.9 19:07:30 10° S 19:10:31 30° SE 19:10:31 30° SE
Cosmos 2279 Rocket 4.0 19:06:20 10° N 19:12:33 84° W 19:18:47 10° S
SJ-6B 2.8 19:09:03 10° SSE 19:13:05 90° W 19:17:14 10° NNW
Cosmos 1980 4.0 19:09:09 10° SSW 19:14:47 66° WNW 19:19:45 14° NNE
Cosmos 1666 Rocket 3.8 19:11:50 10° SSE 19:15:24 45° ESE 19:15:24 45° ESE
Cosmos 2058 3.6 19:16:52 10° SSW 19:20:54 54° W 19:24:55 10° N
FENGYUN 3A 3.5 19:19:34 10° SSE 19:24:51 65° ENE 19:30:11 10° N
Cosmos 304 Rocket 3.6 19:22:08 10° SSW 19:26:56 81° ESE 19:28:08 51° NNE
Cosmos 2333 Rocket 3.2 19:21:59 10° SW 19:27:22 45° WNW 19:32:21 12° N
Cosmos 1703 3.3 19:24:57 10° S 19:28:50 77° W 19:29:17 66° NNW
Nadezhda 4 Rocket 3.9 19:26:52 10° S 19:33:04 75° E 19:39:23 10° N
Cosmos 2219 Rocket 3.9 19:36:10 10° WSW 19:40:59 28° NW 19:45:48 10° N
Cosmos 1340 Rocket 4.2 19:40:04 10° SW 19:43:44 37° WNW 19:45:23 25° NNW
Cosmos 1356 Rocket 4.4 19:41:03 10° SSW 19:43:34 37° SSW 19:43:34 37° SSW
Cosmos 2278 Rocket 3.5 19:40:51 10° NW 19:46:05 39° WSW 19:51:17 10° S
Cosmos 1092 Rocket 3.9 19:44:05 10° S 19:50:22 74° E 19:51:46 55° NNE
USA 215 4.0 19:45:33 11° SSE 19:51:40 50° SW 19:58:02 10° WNW
Cosmos 1626 4.0 19:50:39 10° SSW 19:52:36 27° SW 19:52:36 27° SW
ALOS 3.3 20:04:24 10° S 20:08:50 43° W 20:13:18 10° NNW
Cosmos 2237 Rocket 4.0 20:07:03 10° WSW 20:11:44 27° NW 20:14:53 17° N
Spot 2 Rocket 4.4 20:09:26 10° S 20:14:16 45° W 20:19:07 10° NNW
SL-16 R/B 2.8 20:10:30 10° SW 20:16:00 53° WNW 20:16:19 52° NW
Lacrosse 5 rocket 3.9 20:18:14 10° WNW 20:19:23 17° WNW 20:19:23 17° WNW
Resurs 01 Rocket 3.9 20:31:56 22° WNW 20:31:56 22° WNW 20:34:16 10° NW
USA 229 DEB 4.3 20:27:13 10° SSW 20:31:47 46° SSW 20:31:47 46° SSW
USA 229 4.4 20:27:19 10° SSW 20:31:50 45° SSW 20:31:50 45° SSW
H-2A ROCKET BODY 4.5 20:56:04 10° WSW 21:02:29 21° SW 21:02:29 21° SW
